Time,TemperatureF,DewpointF,PressureIn,WindDirection,WindDirectionDegrees,WindSpeedMPH,WindSpeedGustMPH,Humidity,HourlyPrecipIn,Conditions,Clouds,dailyrainin,SoftwareType,DateUTC
2013-02-14 00:01:00,39.0,13.0,-100.00,WSW,245,19.0,26.0,34,-99.99,,,-99.99,,2013-02-14 05:01:00,
2013-02-14 00:11:00,39.0,13.0,-100.00,WSW,250,16.0,24.0,34,-99.99,,,-99.99,,2013-02-14 05:11:00,
2013-02-14 00:21:00,37.0,12.0,-100.00,West,280,24.0,35.0,35,-99.99,,,-99.99,,2013-02-14 05:21:00,
2013-02-14 00:31:00,36.0,12.0,-100.00,WNW,295,13.0,28.0,37,-99.99,,,-99.99,,2013-02-14 05:31:00,
2013-02-14 00:41:00,35.0,13.0,-100.00,WNW,290,15.0,28.0,40,-99.99,,,-99.99,,2013-02-14 05:41:00,
2013-02-14 00:52:00,34.0,14.0,-100.00,WNW,290,12.0,22.0,43,-99.99,,,-99.99,,2013-02-14 05:52:00,
2013-02-14 01:02:00,33.0,15.0,-100.00,WNW,285,13.0,17.0,46,-99.99,,,-99.99,,2013-02-14 06:02:00,
2013-02-14 01:11:00,32.0,16.0,-100.00,WNW,300,5.0,18.0,50,-99.99,,,-99.99,,2013-02-14 06:11:00,
2013-02-14 01:21:00,31.0,17.0,-100.00,NE,55,6.0,7.0,54,-99.99,,,-99.99,,2013-02-14 06:21:00,
2013-02-14 01:31:00,31.0,18.0,-100.00,ENE,60,8.0,11.0,58,-99.99,,,-99.99,,2013-02-14 06:31:00,
2013-02-14 01:41:00,31.0,20.0,-100.00,NNW,330,1.0,9.0,61,-99.99,,,-99.99,,2013-02-14 06:41:00,
2013-02-14 01:51:00,32.0,22.0,-100.00,NE,50,4.0,6.0,65,-99.99,,,-99.99,,2013-02-14 06:51:00,
2013-02-14 02:01:00,30.0,21.0,-100.00,NE,35,4.0,4.0,67,-99.99,,,-99.99,,2013-02-14 07:01:00,
2013-02-14 02:11:00,31.0,22.0,-100.00,NW,320,4.0,6.0,68,-99.99,,,-99.99,,2013-02-14 07:11:00,
2013-02-14 02:21:00,31.0,22.0,-100.00,West,280,6.0,10.0,69,-99.99,,,-99.99,,2013-02-14 07:21:00,
2013-02-14 02:31:00,30.0,21.0,-100.00,SE,130,4.0,6.0,68,-99.99,,,-99.99,,2013-02-14 07:31:00,
2013-02-14 02:41:00,28.0,20.0,-100.00,SE,140,4.0,9.0,71,-99.99,,,-99.99,,2013-02-14 07:41:00,
2013-02-14 02:51:00,29.0,21.0,-100.00,South,175,2.0,5.0,71,-99.99,,,-99.99,,2013-02-14 07:51:00,
2013-02-14 03:01:00,29.0,21.0,-100.00,SW,230,2.0,4.0,73,-99.99,,,-99.99,,2013-02-14 08:01:00,
2013-02-14 03:11:00,28.0,21.0,-100.00,SSW,210,3.0,4.0,74,-99.99,,,-99.99,,2013-02-14 08:11:00,
2013-02-14 03:21:00,28.0,20.0,-100.00,WNW,290,0.0,4.0,74,-99.99,,,-99.99,,2013-02-14 08:21:00,
2013-02-14 03:31:00,26.0,19.0,-100.00,East,100,5.0,6.0,75,-99.99,,,-99.99,,2013-02-14 08:31:00,
2013-02-14 03:43:00,26.0,19.0,-100.00,East,100,4.0,7.0,73,-99.99,,,-99.99,,2013-02-14 08:43:00,
2013-02-14 03:52:00,22.0,16.0,-100.00,ESE,110,6.0,7.0,79,-99.99,,,-99.99,,2013-02-14 08:52:00,
2013-02-14 04:01:00,22.0,17.0,-100.00,ENE,65,4.0,8.0,80,-99.99,,,-99.99,,2013-02-14 09:01:00,
2013-02-14 04:11:00,20.0,16.0,-100.00,ENE,75,7.0,8.0,81,-99.99,,,-99.99,,2013-02-14 09:11:00,
2013-02-14 04:21:00,19.0,13.0,-100.00,East,85,7.0,9.0,76,-99.99,,,-99.99,,2013-02-14 09:21:00,
2013-02-14 04:31:00,18.0,13.0,-100.00,East,90,7.0,9.0,81,-99.99,,,-99.99,,2013-02-14 09:31:00,
2013-02-14 04:41:00,18.0,13.0,-100.00,East,85,6.0,7.0,81,-99.99,,,-99.99,,2013-02-14 09:41:00,
2013-02-14 04:51:00,18.0,14.0,-100.00,East,95,6.0,7.0,81,-99.99,,,-99.99,,2013-02-14 09:51:00,
2013-02-14 05:02:00,18.0,13.0,-100.00,East,90,6.0,6.0,81,-99.99,,,-99.99,,2013-02-14 10:02:00,
2013-02-14 05:11:00,19.0,14.0,-100.00,East,95,5.0,6.0,81,-99.99,,,-99.99,,2013-02-14 10:11:00,
2013-02-14 05:21:00,19.0,14.0,-100.00,East,90,4.0,9.0,81,-99.99,,,-99.99,,2013-02-14 10:21:00,
2013-02-14 05:31:00,19.0,14.0,-100.00,East,90,7.0,8.0,80,-99.99,,,-99.99,,2013-02-14 10:31:00,
2013-02-14 05:42:00,19.0,14.0,-100.00,East,90,5.0,7.0,79,-99.99,,,-99.99,,2013-02-14 10:42:00,
2013-02-14 05:52:00,20.0,15.0,-100.00,ESE,110,6.0,6.0,80,-99.99,,,-99.99,,2013-02-14 10:52:00,
2013-02-14 06:01:00,21.0,16.0,-100.00,ESE,105,4.0,6.0,80,-99.99,,,-99.99,,2013-02-14 11:01:00,
2013-02-14 06:11:00,22.0,17.0,-100.00,East,95,5.0,6.0,80,-99.99,,,-99.99,,2013-02-14 11:11:00,
2013-02-14 06:21:00,22.0,17.0,-100.00,East,95,6.0,7.0,81,-99.99,,,-99.99,,2013-02-14 11:21:00,
2013-02-14 06:32:00,21.0,16.0,-100.00,East,85,4.0,7.0,81,-99.99,,,-99.99,,2013-02-14 11:32:00,
2013-02-14 06:42:00,22.0,17.0,-100.00,East,95,4.0,6.0,81,-99.99,,,-99.99,,2013-02-14 11:42:00,
2013-02-14 06:52:00,22.0,18.0,-100.00,East,80,3.0,5.0,81,-99.99,,,-99.99,,2013-02-14 11:52:00,
2013-02-14 07:02:00,22.0,17.0,-100.00,ENE,70,5.0,6.0,81,-99.99,,,-99.99,,2013-02-14 12:02:00,
2013-02-14 07:11:00,22.0,17.0,-100.00,East,85,6.0,7.0,81,-99.99,,,-99.99,,2013-02-14 12:11:00,
2013-02-14 07:22:00,23.0,18.0,-100.00,East,95,6.0,6.0,81,-99.99,,,-99.99,,2013-02-14 12:22:00,
2013-02-14 07:32:00,23.0,18.0,-100.00,East,85,4.0,6.0,81,-99.99,,,-99.99,,2013-02-14 12:32:00,
2013-02-14 07:42:00,23.0,18.0,-100.00,East,90,4.0,6.0,80,-99.99,,,-99.99,,2013-02-14 12:42:00,
2013-02-14 07:53:00,23.0,18.0,-100.00,East,90,4.0,6.0,80,-99.99,,,-99.99,,2013-02-14 12:53:00,
2013-02-14 08:01:00,23.0,18.0,-100.00,East,80,6.0,6.0,80,-99.99,,,-99.99,,2013-02-14 13:01:00,
2013-02-14 08:11:00,24.0,18.0,-100.00,East,100,4.0,7.0,79,-99.99,,,-99.99,,2013-02-14 13:11:00,
2013-02-14 08:21:00,24.0,18.0,-100.00,East,80,4.0,6.0,78,-99.99,,,-99.99,,2013-02-14 13:21:00,
2013-02-14 08:31:00,24.0,19.0,-100.00,East,85,11.0,12.0,78,-99.99,,,-99.99,,2013-02-14 13:31:00,
2013-02-14 08:41:00,25.0,19.0,-100.00,West,270,2.0,11.0,77,-99.99,,,-99.99,,2013-02-14 13:41:00,
2013-02-14 08:51:00,25.0,19.0,-100.00,SSE,160,2.0,6.0,77,-99.99,,,-99.99,,2013-02-14 13:51:00,
2013-02-14 09:01:00,25.0,19.0,-100.00,SW,215,2.0,9.0,76,-99.99,,,-99.99,,2013-02-14 14:01:00,
2013-02-14 09:11:00,25.0,19.0,-100.00,SW,215,2.0,4.0,77,-99.99,,,-99.99,,2013-02-14 14:11:00,
2013-02-14 09:21:00,25.0,19.0,-100.00,West,260,1.0,6.0,77,-99.99,,,-99.99,,2013-02-14 14:21:00,
2013-02-14 09:31:00,25.0,19.0,-100.00,East,90,4.0,7.0,77,-99.99,,,-99.99,,2013-02-14 14:31:00,
2013-02-14 09:41:00,25.0,19.0,-100.00,ENE,70,2.0,6.0,77,-99.99,,,-99.99,,2013-02-14 14:41:00,
2013-02-14 09:52:00,26.0,20.0,-100.00,SE,125,4.0,6.0,77,-99.99,,,-99.99,,2013-02-14 14:52:00,
2013-02-14 10:01:00,26.0,20.0,-100.00,WSW,250,4.0,11.0,76,-99.99,,,-99.99,,2013-02-14 15:01:00,
2013-02-14 10:11:00,27.0,20.0,-100.00,NW,305,3.0,6.0,76,-99.99,,,-99.99,,2013-02-14 15:11:00,
2013-02-14 10:21:00,27.0,20.0,-100.00,West,270,9.0,10.0,75,-99.99,,,-99.99,,2013-02-14 15:21:00,
2013-02-14 10:31:00,28.0,20.0,-100.00,North,5,0.0,9.0,74,-99.99,,,-99.99,,2013-02-14 15:31:00,
2013-02-14 10:41:00,28.0,21.0,-100.00,North,10,4.0,5.0,72,-99.99,,,-99.99,,2013-02-14 15:41:00,
2013-02-14 10:51:00,30.0,21.0,-100.00,WNW,295,4.0,6.0,70,-99.99,,,-99.99,,2013-02-14 15:51:00,
2013-02-14 11:01:00,31.0,21.0,-100.00,West,265,6.0,8.0,68,-99.99,,,-99.99,,2013-02-14 16:01:00,
2013-02-14 11:11:00,31.0,22.0,-100.00,West,270,6.0,8.0,67,-99.99,,,-99.99,,2013-02-14 16:11:00,
2013-02-14 11:21:00,31.0,23.0,-100.00,West,270,6.0,8.0,70,-99.99,,,-99.99,,2013-02-14 16:21:00,
2013-02-14 11:32:00,31.0,24.0,-100.00,West,270,7.0,7.0,74,-99.99,,,-99.99,,2013-02-14 16:32:00,
2013-02-14 11:41:00,31.0,25.0,-100.00,West,265,4.0,7.0,77,-99.99,,,-99.99,,2013-02-14 16:41:00,
2013-02-14 11:51:00,31.0,26.0,-100.00,WSW,255,5.0,6.0,80,-99.99,,,-99.99,,2013-02-14 16:51:00,
2013-02-14 12:01:00,27.0,22.0,-100.00,WNW,290,21.0,27.0,82,-99.99,,,-99.99,,2013-02-14 17:01:00,
2013-02-14 12:11:00,26.0,22.0,-100.00,WNW,285,16.0,29.0,85,-99.99,,,-99.99,,2013-02-14 17:11:00,
2013-02-14 12:21:00,27.0,23.0,-100.00,WNW,285,14.0,23.0,83,-99.99,,,-99.99,,2013-02-14 17:21:00,
2013-02-14 12:31:00,29.0,20.0,-100.00,WNW,285,18.0,25.0,68,-99.99,,,-99.99,,2013-02-14 17:31:00,
2013-02-14 12:41:00,29.0,19.0,-100.00,West,275,22.0,28.0,63,-99.99,,,-99.99,,2013-02-14 17:41:00,
2013-02-14 12:52:00,29.0,18.0,-100.00,West,280,19.0,29.0,61,-99.99,,,-99.99,,2013-02-14 17:52:00,
2013-02-14 13:01:00,29.0,17.0,-100.00,West,280,19.0,27.0,60,-99.99,,,-99.99,,2013-02-14 18:01:00,
2013-02-14 13:11:00,29.0,17.0,-100.00,West,275,17.0,24.0,60,-99.99,,,-99.99,,2013-02-14 18:11:00,
2013-02-14 13:22:00,29.0,17.0,-100.00,West,280,19.0,26.0,58,-99.99,,,-99.99,,2013-02-14 18:22:00,
2013-02-14 13:31:00,29.0,17.0,-100.00,West,275,21.0,27.0,58,-99.99,,,-99.99,,2013-02-14 18:31:00,
2013-02-14 13:41:00,29.0,17.0,-100.00,WNW,285,20.0,24.0,58,-99.99,,,-99.99,,2013-02-14 18:41:00,
2013-02-14 13:51:00,29.0,16.0,-100.00,West,275,21.0,27.0,57,-99.99,,,-99.99,,2013-02-14 18:51:00,
2013-02-14 14:02:00,29.0,16.0,-100.00,WNW,285,21.0,27.0,57,-99.99,,,-99.99,,2013-02-14 19:02:00,
2013-02-14 14:11:00,29.0,16.0,-100.00,West,280,21.0,27.0,56,-99.99,,,-99.99,,2013-02-14 19:11:00,
2013-02-14 14:21:00,29.0,16.0,-100.00,West,275,21.0,24.0,56,-99.99,,,-99.99,,2013-02-14 19:21:00,
2013-02-14 14:31:00,29.0,16.0,-100.00,West,275,17.0,24.0,56,-99.99,,,-99.99,,2013-02-14 19:31:00,
2013-02-14 14:41:00,29.0,15.0,-100.00,West,265,19.0,24.0,54,-99.99,,,-99.99,,2013-02-14 19:41:00,
2013-02-14 14:51:00,30.0,15.0,-100.00,West,275,17.0,24.0,53,-99.99,,,-99.99,,2013-02-14 19:51:00,
2013-02-14 15:01:00,30.0,15.0,-100.00,West,275,15.0,19.0,53,-99.99,,,-99.99,,2013-02-14 20:01:00,
2013-02-14 15:11:00,30.0,15.0,-100.00,West,260,15.0,21.0,52,-99.99,,,-99.99,,2013-02-14 20:11:00,
2013-02-14 15:21:00,31.0,15.0,-100.00,West,260,16.0,20.0,51,-99.99,,,-99.99,,2013-02-14 20:21:00,
2013-02-14 15:31:00,31.0,14.0,-100.00,WSW,255,17.0,21.0,48,-99.99,,,-99.99,,2013-02-14 20:31:00,
2013-02-14 15:41:00,31.0,15.0,-100.00,WSW,255,14.0,19.0,49,-99.99,,,-99.99,,2013-02-14 20:41:00,
2013-02-14 15:52:00,31.0,13.0,-100.00,WSW,255,20.0,24.0,46,-99.99,,,-99.99,,2013-02-14 20:52:00,
2013-02-14 16:02:00,31.0,13.0,-100.00,WSW,255,20.0,24.0,46,-99.99,,,-99.99,,2013-02-14 21:02:00,
2013-02-14 16:11:00,32.0,14.0,-100.00,West,260,17.0,25.0,46,-99.99,,,-99.99,,2013-02-14 21:11:00,
2013-02-14 16:21:00,32.0,14.0,-100.00,West,260,18.0,25.0,47,-99.99,,,-99.99,,2013-02-14 21:21:00,
2013-02-14 16:31:00,31.0,13.0,-100.00,West,265,21.0,26.0,45,-99.99,,,-99.99,,2013-02-14 21:31:00,
2013-02-14 16:41:00,31.0,12.0,-100.00,West,265,20.0,25.0,45,-99.99,,,-99.99,,2013-02-14 21:41:00,
2013-02-14 16:52:00,31.0,13.0,-100.00,West,265,16.0,21.0,45,-99.99,,,-99.99,,2013-02-14 21:52:00,
2013-02-14 17:02:00,32.0,13.0,-100.00,West,265,16.0,21.0,44,-99.99,,,-99.99,,2013-02-14 22:02:00,
2013-02-14 17:11:00,32.0,12.0,-100.00,West,265,16.0,22.0,43,-99.99,,,-99.99,,2013-02-14 22:11:00,
2013-02-14 17:21:00,31.0,11.0,-100.00,West,270,16.0,23.0,41,-99.99,,,-99.99,,2013-02-14 22:21:00,
2013-02-14 17:31:00,32.0,12.0,-100.00,WSW,255,13.0,19.0,42,-99.99,,,-99.99,,2013-02-14 22:31:00,
2013-02-14 17:41:00,31.0,10.0,-100.00,West,270,18.0,23.0,41,-99.99,,,-99.99,,2013-02-14 22:41:00,
2013-02-14 17:51:00,31.0,10.0,-100.00,West,270,16.0,22.0,41,-99.99,,,-99.99,,2013-02-14 22:51:00,
2013-02-14 18:01:00,30.0,11.0,-100.00,West,265,12.0,21.0,42,-99.99,,,-99.99,,2013-02-14 23:01:00,
2013-02-14 18:11:00,30.0,11.0,-100.00,West,270,12.0,19.0,43,-99.99,,,-99.99,,2013-02-14 23:11:00,
2013-02-14 18:21:00,30.0,10.0,-100.00,West,270,12.0,18.0,42,-99.99,,,-99.99,,2013-02-14 23:21:00,
2013-02-14 18:31:00,29.0,10.0,-100.00,West,260,10.0,14.0,43,-99.99,,,-99.99,,2013-02-14 23:31:00,
2013-02-14 18:41:00,29.0,10.0,-100.00,West,265,8.0,12.0,44,-99.99,,,-99.99,,2013-02-14 23:41:00,
2013-02-14 18:52:00,30.0,9.0,-100.00,West,270,12.0,16.0,41,-99.99,,,-99.99,,2013-02-14 23:52:00,
2013-02-14 19:01:00,30.0,9.0,-100.00,West,265,9.0,14.0,41,-99.99,,,-99.99,,2013-02-15 00:01:00,
2013-02-14 19:11:00,29.0,9.0,-100.00,West,275,9.0,12.0,42,-99.99,,,-99.99,,2013-02-15 00:11:00,
2013-02-14 19:21:00,29.0,9.0,-100.00,West,275,7.0,10.0,43,-99.99,,,-99.99,,2013-02-15 00:21:00,
2013-02-14 19:31:00,29.0,10.0,-100.00,West,280,7.0,10.0,44,-99.99,,,-99.99,,2013-02-15 00:31:00,
2013-02-14 19:41:00,28.0,9.0,-100.00,West,275,6.0,10.0,44,-99.99,,,-99.99,,2013-02-15 00:41:00,
2013-02-14 19:51:00,28.0,9.0,-100.00,West,275,8.0,10.0,43,-99.99,,,-99.99,,2013-02-15 00:51:00,
2013-02-14 20:02:00,28.0,8.0,-100.00,West,280,6.0,10.0,43,-99.99,,,-99.99,,2013-02-15 01:02:00,
2013-02-14 20:11:00,27.0,8.0,-100.00,WNW,285,7.0,9.0,43,-99.99,,,-99.99,,2013-02-15 01:11:00,
2013-02-14 20:21:00,27.0,8.0,-100.00,West,280,8.0,11.0,43,-99.99,,,-99.99,,2013-02-15 01:21:00,
2013-02-14 20:31:00,26.0,7.0,-100.00,West,280,8.0,11.0,43,-99.99,,,-99.99,,2013-02-15 01:31:00,
2013-02-14 20:41:00,25.0,6.0,-100.00,West,280,9.0,10.0,44,-99.99,,,-99.99,,2013-02-15 01:41:00,
2013-02-14 20:51:00,25.0,7.0,-100.00,West,275,9.0,11.0,45,-99.99,,,-99.99,,2013-02-15 01:51:00,
2013-02-14 21:01:00,25.0,6.0,-100.00,West,270,6.0,11.0,45,-99.99,,,-99.99,,2013-02-15 02:01:00,
2013-02-14 21:11:00,25.0,7.0,-100.00,West,275,6.0,8.0,45,-99.99,,,-99.99,,2013-02-15 02:11:00,
2013-02-14 21:21:00,24.0,6.0,-100.00,WNW,285,7.0,10.0,46,-99.99,,,-99.99,,2013-02-15 02:21:00,
2013-02-14 21:31:00,26.0,7.0,-100.00,West,265,9.0,14.0,44,-99.99,,,-99.99,,2013-02-15 02:31:00,
2013-02-14 21:41:00,25.0,7.0,-100.00,West,260,6.0,9.0,44,-99.99,,,-99.99,,2013-02-15 02:41:00,
2013-02-14 21:52:00,25.0,7.0,-100.00,West,260,6.0,7.0,45,-99.99,,,-99.99,,2013-02-15 02:52:00,
2013-02-14 22:02:00,25.0,7.0,-100.00,WSW,250,6.0,6.0,45,-99.99,,,-99.99,,2013-02-15 03:02:00,
2013-02-14 22:11:00,24.0,7.0,-100.00,SW,235,4.0,6.0,46,-99.99,,,-99.99,,2013-02-15 03:11:00,
2013-02-14 22:21:00,24.0,7.0,-100.00,SW,235,4.0,6.0,46,-99.99,,,-99.99,,2013-02-15 03:21:00,
2013-02-14 22:32:00,24.0,7.0,-100.00,SW,225,6.0,7.0,48,-99.99,,,-99.99,,2013-02-15 03:32:00,
2013-02-14 22:42:00,23.0,7.0,-100.00,SW,230,6.0,7.0,49,-99.99,,,-99.99,,2013-02-15 03:42:00,
2013-02-14 22:51:00,23.0,7.0,-100.00,WSW,255,6.0,7.0,51,-99.99,,,-99.99,,2013-02-15 03:51:00,
2013-02-14 23:01:00,22.0,7.0,-100.00,SW,230,6.0,7.0,51,-99.99,,,-99.99,,2013-02-15 04:01:00,
2013-02-14 23:11:00,22.0,8.0,-100.00,SW,230,4.0,6.0,54,-99.99,,,-99.99,,2013-02-15 04:11:00,
2013-02-14 23:21:00,21.0,8.0,-100.00,WSW,240,4.0,6.0,56,-99.99,,,-99.99,,2013-02-15 04:21:00,
2013-02-14 23:31:00,21.0,8.0,-100.00,SW,225,4.0,5.0,57,-99.99,,,-99.99,,2013-02-15 04:31:00,
2013-02-14 23:42:00,21.0,8.0,-100.00,SW,230,6.0,6.0,57,-99.99,,,-99.99,,2013-02-15 04:42:00,
2013-02-14 23:51:00,21.0,8.0,-100.00,SW,220,4.0,6.0,58,-99.99,,,-99.99,,2013-02-15 04:51:00,